Weather History for Maxwell AFB, AL

Change the Weather History Date:

Friday, April 5, 2013

  Actual Average Record
Temperature  
Mean Temperature 57 °F -  
Max Temperature 68 °F 74 °F 87 °F (1999)
Min Temperature 46 °F 53 °F 42 °F (2004)
Degree Days  
Heating Degree Days 8    
Growing Degree Days 7 (Base 50)    
Moisture  
Dew Point 45 °F    
Average Humidity 82    
Maximum Humidity 100    
Minimum Humidity 39    
Precipitation  
Precipitation 0.12 in - - ()
Sea Level Pressure  
Sea Level Pressure 30.02 in    
Wind  
Wind Speed 7 mph (North)    
Max Wind Speed 15 mph    
Max Gust Speed 20 mph    
Visibility 10 miles    
Events Rain    
Averages and records for this station are not official NWS values.
T = Trace of Precipitation, MM = Missing Value Source: NWS Daily Summary

Daily Weather History Graph

Daily Weather History Graph

Search for Another Location

Airport:

Trip Planner

Search our weather history database for the weather conditions in past years. The results will help you decide how hot, cold, wet, or windy it might be!

Date:

Astronomy

Apr. 05, 2013 Rise Set
Actual Time 6:28 AM CDT 7:08 PM CDT
Civil Twilight 6:03 AM CDT 7:33 PM CDT
Nautical Twilight 5:34 AM CDT 8:02 PM CDT
Astronomical Twilight 5:04 AM CDT 8:32 PM CDT
Moon 3:19 AM CDT (4/5) 2:46 PM CDT (4/5)
Length of Visible Light 13h 29m
Length of Day
12h 40m
Waning Crescent, 23% of the Moon is Illuminated
Apr 5
Waning Crescent
Apr 10
New
Apr 18
First Quarter
Apr 25
Full
May 2
Last Quarter

Hourly Weather History & Observations

Time (CDT) Temp. Windchill Dew Point Humidity Pressure Visibility Wind Dir Wind Speed Gust Speed Precip Events Conditions
12:08 AM 48.2 °F - 46.4 °F 93% 29.95 in 10.0 mi NNE 8.1 mph - N/A   Overcast
12:33 AM 48.2 °F - 46.4 °F 93% 29.95 in 10.0 mi NE 5.8 mph - N/A   Overcast
12:53 AM 48.2 °F - 46.4 °F 93% 29.94 in 10.0 mi NNE 9.2 mph - N/A   Overcast
12:58 AM 47.8 °F - 45.9 °F 93% 29.96 in 10.0 mi NE 8.1 mph - N/A   Overcast
1:18 AM 48.2 °F - 46.4 °F 93% 29.96 in 10.0 mi NNE 8.1 mph - N/A   Overcast
1:38 AM 48.2 °F - 46.4 °F 93% 29.96 in 10.0 mi NNE 5.8 mph - N/A   Overcast
1:58 AM 47.7 °F - 45.7 °F 93% 29.98 in 10.0 mi NNW 5.8 mph - N/A   Overcast
1:59 AM 48.2 °F - 46.4 °F 93% 29.97 in 10.0 mi NNW 5.8 mph - N/A Rain Light Rain
2:14 AM 48.2 °F - 46.4 °F 93% 29.98 in 3.0 mi North 6.9 mph - N/A Rain Light Rain
2:19 AM 46.4 °F 42.9 °F 46.4 °F 100% 29.97 in 2.5 mi North 6.9 mph - N/A Rain Rain
2:24 AM 46.4 °F 44.3 °F 46.4 °F 100% 29.97 in 4.0 mi North 4.6 mph - N/A Rain Light Rain
2:34 AM 46.4 °F 44.3 °F 46.4 °F 100% 29.97 in 8.0 mi North 4.6 mph - N/A Rain Light Rain
2:39 AM 46.4 °F 42.4 °F 46.4 °F 100% 29.97 in 9.0 mi NNE 8.1 mph - N/A Rain Light Rain
2:49 AM 46.4 °F 41.9 °F 46.4 °F 100% 29.96 in 10.0 mi North 9.2 mph - N/A Rain Light Rain
2:53 AM 46.4 °F 44.3 °F 46.4 °F 100% 29.96 in 10.0 mi North 4.6 mph - N/A   Overcast
2:54 AM 46.4 °F 44.3 °F 46.4 °F 100% 29.96 in 10.0 mi North 4.6 mph - N/A Rain Light Rain
2:58 AM 46.4 °F 42.9 °F 46.4 °F 100% 29.97 in 10.0 mi NNE 6.9 mph - 0.05 in Rain Light Rain
3:13 AM 46.4 °F 42.4 °F 44.6 °F 93% 29.96 in 10.0 mi NE 8.1 mph - N/A   Overcast
3:18 AM 46.4 °F 44.3 °F 44.6 °F 93% 29.96 in 10.0 mi NE 4.6 mph - N/A   Overcast
3:28 AM 46.4 °F 41.9 °F 44.6 °F 93% 29.95 in 10.0 mi NE 9.2 mph - N/A Rain Light Rain
3:47 AM 46.4 °F 42.9 °F 44.6 °F 93% 29.96 in 10.0 mi North 6.9 mph - N/A   Overcast
3:48 AM 46.4 °F 43.5 °F 44.6 °F 93% 29.96 in 10.0 mi North 5.8 mph - N/A Rain Light Rain
3:58 AM 46.4 °F 42.9 °F 44.8 °F 94% 29.98 in 7.0 mi NNW 6.9 mph - 0.01 in Rain Light Rain
4:13 AM 46.4 °F 41.5 °F 44.6 °F 93% 29.97 in 5.0 mi North 10.4 mph - N/A Rain Light Rain
4:28 AM 46.4 °F 43.5 °F 44.6 °F 93% 29.97 in 10.0 mi North 5.8 mph - N/A Rain Light Rain
4:32 AM 46.4 °F 43.5 °F 44.6 °F 93% 29.97 in 10.0 mi North 5.8 mph - N/A   Overcast
4:37 AM 46.4 °F 45.2 °F 44.6 °F 93% 29.97 in 10.0 mi NNW 3.5 mph - N/A   Overcast
4:52 AM 46.4 °F 44.3 °F 44.6 °F 93% 29.98 in 10.0 mi North 4.6 mph - N/A   Overcast
4:58 AM 46.2 °F 44.1 °F 44.6 °F 94% 29.99 in 10.0 mi NNW 4.6 mph - 0.06 in   Overcast
5:33 AM 46.4 °F 43.5 °F 44.6 °F 93% 29.99 in 10.0 mi NNW 5.8 mph - N/A   Overcast
5:58 AM 46.4 °F - 44.8 °F 94% 30.02 in 10.0 mi North 2.3 mph - N/A   Overcast
6:13 AM 46.4 °F 44.3 °F 44.6 °F 93% 30.01 in 10.0 mi North 4.6 mph - N/A   Overcast
6:48 AM 46.4 °F 43.5 °F 44.6 °F 93% 30.02 in 10.0 mi North 5.8 mph - N/A   Overcast
6:58 AM 46.9 °F - 45.1 °F 93% 30.03 in 10.0 mi North 5.8 mph - N/A   Overcast
7:23 AM 46.4 °F 42.4 °F 44.6 °F 93% 30.03 in 10.0 mi North 8.1 mph - N/A   Overcast
7:28 AM 46.4 °F 42.9 °F 44.6 °F 93% 30.03 in 10.0 mi NNW 6.9 mph - N/A   Overcast
7:33 AM 46.4 °F 41.9 °F 44.6 °F 93% 30.04 in 10.0 mi NNW 9.2 mph - N/A   Overcast
7:58 AM 47.1 °F - 44.2 °F 90% 30.05 in 10.0 mi North 12.7 mph - N/A   Overcast
8:33 AM 48.2 °F - 44.6 °F 87% 30.05 in 10.0 mi North 10.4 mph - N/A   Mostly Cloudy
8:58 AM 50.0 °F - 44.6 °F 82% 30.07 in 10.0 mi North 8.1 mph - N/A   Overcast
9:18 AM 50.0 °F - 44.6 °F 82% 30.06 in 10.0 mi North 5.8 mph - N/A   Overcast
9:23 AM 50.0 °F - 44.6 °F 82% 30.06 in 10.0 mi North 10.4 mph - N/A   Overcast
9:38 AM 50.0 °F - 44.6 °F 82% 30.07 in 10.0 mi North 8.1 mph - N/A   Overcast
9:43 AM 51.8 °F - 44.6 °F 76% 30.07 in 10.0 mi North 9.2 mph - N/A   Overcast
9:58 AM 50.7 °F - 44.8 °F 80% 30.08 in 10.0 mi NNE 11.5 mph - N/A   Overcast
10:03 AM 51.8 °F - 44.6 °F 76% 30.07 in 10.0 mi North 9.2 mph - N/A   Overcast
10:28 AM 51.8 °F - 44.6 °F 76% 30.08 in 10.0 mi North 10.4 mph - N/A   Overcast
10:43 AM 51.8 °F - 44.6 °F 76% 30.08 in 10.0 mi NNW 9.2 mph - N/A   Overcast
10:53 AM 51.8 °F - 44.6 °F 76% 30.09 in 10.0 mi North 12.7 mph - N/A   Overcast
10:58 AM 52.0 °F - 44.6 °F 76% 30.10 in 10.0 mi NNW 6.9 mph - N/A   Overcast
11:28 AM 53.6 °F - 46.4 °F 77% 30.08 in 10.0 mi NNW 8.1 mph - N/A   Overcast
11:33 AM 55.4 °F - 46.4 °F 72% 30.08 in 10.0 mi North 9.2 mph - N/A   Overcast
11:38 AM 55.4 °F - 44.6 °F 67% 30.08 in 10.0 mi NNE 8.1 mph - N/A   Overcast
11:58 AM 55.8 °F - 45.0 °F 67% 30.09 in 10.0 mi North 11.5 mph - N/A   Overcast
12:28 PM 59.0 °F - 46.4 °F 63% 30.07 in 10.0 mi NNE 10.4 mph - N/A   Mostly Cloudy
12:58 PM 60.4 °F - 46.0 °F 59% 30.07 in 10.0 mi NE 13.8 mph - N/A   Mostly Cloudy
1:58 PM 62.8 °F - 45.3 °F 53% 30.05 in 10.0 mi NNW 15.0 mph 19.6 mph N/A   Mostly Cloudy
1:59 PM 64.4 °F - 46.4 °F 52% 30.03 in 10.0 mi North 12.7 mph 19.6 mph N/A   Mostly Cloudy
2:07 PM 64.4 °F - 46.4 °F 52% 30.03 in 10.0 mi North 12.7 mph 19.6 mph N/A   Mostly Cloudy
2:08 PM 64.4 °F - 46.4 °F 52% 30.03 in 10.0 mi NNE 11.5 mph - N/A   Mostly Cloudy
2:58 PM 65.7 °F - 45.0 °F 47% 30.03 in 10.0 mi North 11.5 mph - N/A   Partly Cloudy
3:58 PM 67.6 °F - 43.7 °F 42% 30.01 in 10.0 mi NNE 10.4 mph - N/A   Clear
4:58 PM 68.4 °F - 42.6 °F 39% 30.02 in 10.0 mi NNW 9.2 mph - N/A   Clear
5:58 PM 68.4 °F - 43.0 °F 40% 30.03 in 10.0 mi NW 8.1 mph - N/A   Clear
6:58 PM 63.9 °F - 42.4 °F 46% 30.04 in 10.0 mi NNW 5.8 mph - N/A   Clear
7:58 PM 57.9 °F - 43.7 °F 59% 30.06 in 10.0 mi NW 3.5 mph - N/A   Clear
8:58 PM 53.6 °F - 45.0 °F 73% 30.08 in 10.0 mi WNW 2.3 mph - N/A   Clear
9:58 PM 50.7 °F - 46.6 °F 86% 30.09 in 10.0 mi NNW 4.6 mph - N/A   Clear
10:58 PM 47.8 °F - 45.0 °F 90% 30.11 in 10.0 mi WNW 2.3 mph - N/A   Clear
11:58 PM 46.8 °F - 42.8 °F 86% 30.12 in 10.0 mi SSE 2.3 mph - N/A   Clear